Richmond, VA

7:51 AM EDT on August 19, 2017 (GMT -0400)
Richmond International

Weather History for KRIC - April, 2014

Change the Weather History Date:

Monday, April 14, 2014

  Actual Average Record
Temperature  
Mean Temperature 72 °F 58 °F  
Max Temperature 81 °F 70 °F 90 °F (1960)
Min Temperature 62 °F 46 °F 26 °F (1950)
Degree Days  
Heating Degree Days 0 8  
Month to date heating degree days 64 139  
Since 1 July heating degree days 3630 3591  
Cooling Degree Days 7 1  
Month to date cooling degree days 19 13  
Year to date cooling degree days 21 19  
Growing Degree Days 22 (Base 50)    
Moisture  
Dew Point 54 °F    
Average Humidity 57    
Maximum Humidity 78    
Minimum Humidity 35    
Precipitation  
Precipitation T in 0.11 in 2.35 in (1901)
Month to date precipitation 0.97 1.59  
Year to date precipitation 10.52 11.43  
Snow  
Snow 0.00 in 0.00 in 0.00 in (2002)
Month to date snowfall 0.0 0.1  
Since 1 July snowfall 14.5 10.3  
Snow Depth 0.00 in    
Sea Level Pressure  
Sea Level Pressure 29.99 in    
Wind  
Wind Speed 14 mph (South)    
Max Wind Speed 24 mph    
Max Gust Speed 32 mph    
Visibility 10 miles    
Events      
T = Trace of Precipitation, MM = Missing Value Source: NWS Daily Summary

Daily Weather History Graph

Daily Weather History Graph

Search for Another Location

Airport or City:

Trip Planner

Search our weather history database for the weather conditions in past years. The results will help you decide how hot, cold, wet, or windy it might be!

Date:

Astronomy

Apr. 14, 2014 Rise Set
Actual Time 6:35 AM EDT 7:43 PM EDT
Civil Twilight 6:08 AM EDT 8:10 PM EDT
Nautical Twilight 5:36 AM EDT 8:42 PM EDT
Astronomical Twilight 5:03 AM EDT 9:16 PM EDT
Moon 7:20 PM EDT (4/14) 6:05 AM EDT (4/14)
Length of Visible Light 14h 01m
Length of Day
13h 07m
Full, 100% of the Moon is Illuminated
Apr 14
Full
Apr 15
Full
Apr 22
Last Quarter
Apr 29
New
May 6
First Quarter

Hourly Weather History & Observations

Time (EDT) Temp. Dew Point Humidity Pressure Visibility Wind Dir Wind Speed Gust Speed Precip Events Conditions
12:54 AM 69.1 °F 54.0 °F 58% 30.09 in 10.0 mi South 16.1 mph - N/A   Scattered Clouds
1:54 AM 66.9 °F 53.1 °F 61% 30.08 in 10.0 mi South 13.8 mph 21.9 mph N/A   Scattered Clouds
2:54 AM 64.9 °F 53.1 °F 65% 30.06 in 10.0 mi South 15.0 mph - N/A   Scattered Clouds
3:54 AM 64.0 °F 54.0 °F 70% 30.06 in 10.0 mi South 10.4 mph - N/A   Scattered Clouds
4:54 AM 63.0 °F 54.0 °F 72% 30.05 in 10.0 mi South 9.2 mph - N/A   Mostly Cloudy
5:54 AM 62.1 °F 55.0 °F 78% 30.04 in 10.0 mi South 10.4 mph - N/A   Mostly Cloudy
6:54 AM 62.1 °F 55.0 °F 78% 30.06 in 10.0 mi South 11.5 mph - N/A   Overcast
7:54 AM 64.0 °F 55.0 °F 73% 30.06 in 10.0 mi South 18.4 mph 24.2 mph N/A   Overcast
8:54 AM 66.0 °F 55.0 °F 68% 30.05 in 10.0 mi South 19.6 mph - N/A   Overcast
9:54 AM 69.1 °F 55.0 °F 61% 30.06 in 10.0 mi South 17.3 mph - N/A   Overcast
10:54 AM 73.9 °F 55.0 °F 52% 30.05 in 10.0 mi South 21.9 mph 27.6 mph N/A   Overcast
11:54 AM 73.9 °F 53.1 °F 48% 30.03 in 10.0 mi SSW 18.4 mph 26.5 mph N/A   Overcast
12:54 PM 78.1 °F 53.1 °F 42% 30.00 in 10.0 mi South 20.7 mph 29.9 mph N/A   Mostly Cloudy
1:54 PM 78.1 °F 52.0 °F 40% 29.99 in 10.0 mi SW 17.3 mph 28.8 mph N/A   Overcast
2:54 PM 79.0 °F 51.1 °F 38% 29.96 in 10.0 mi SSW 15.0 mph 25.3 mph N/A   Overcast
3:54 PM 81.0 °F 51.1 °F 35% 29.93 in 10.0 mi SSW 18.4 mph 25.3 mph N/A   Overcast
4:54 PM 78.1 °F 48.9 °F 36% 29.92 in 10.0 mi SSW 15.0 mph - N/A   Mostly Cloudy
5:54 PM 77.0 °F 52.0 °F 42% 29.90 in 10.0 mi SW 11.5 mph - N/A   Mostly Cloudy
6:54 PM 73.9 °F 54.0 °F 50% 29.88 in 10.0 mi South 5.8 mph - N/A   Overcast
7:54 PM 73.0 °F 55.0 °F 53% 29.88 in 10.0 mi South 8.1 mph - N/A   Overcast
8:54 PM 73.0 °F 57.0 °F 57% 29.89 in 10.0 mi South 15.0 mph 21.9 mph N/A   Mostly Cloudy
9:54 PM 69.1 °F 60.1 °F 73% 29.89 in 10.0 mi SSW 11.5 mph - 0.00 in   Overcast
10:54 PM 68.0 °F 60.1 °F 76% 29.87 in 10.0 mi South 6.9 mph - N/A   Overcast
11:54 PM 71.1 °F 57.0 °F 61% 29.83 in 10.0 mi SSE 10.4 mph - N/A   Mostly Cloudy